Location: Stone Trail Observatory
(44.2408°N, 105.6081°W)
Time: 04:39:35
(UTC-06:00)

Iridium 6 - Visible Passes

Search period start: 30 May 2016 00:00
Search period end: 09 June 2016 00:00
Orbit: 776 x 779 km, 86.4° (Epoch: 29 May)

Date Brightness Start Highest point End Pass type
(mag) Time Alt. Az. Time Alt. Az. Time Alt. Az.
30 May 8.1 02:35:28 10° NE 02:38:13 14° ENE 02:40:55 10° ESE visible
30 May 5.5 04:14:21 10° N 04:19:34 76° W 04:24:45 10° S visible
31 May 6.0 03:40:50 10° N 03:46:01 61° E 03:51:10 10° SSE visible
01 Jun 7.0 03:07:36 10° NNE 03:12:21 34° E 03:17:04 10° SE visible
02 Jun 7.8 02:34:46 10° NNE 02:38:33 20° ENE 02:42:18 10° ESE visible
02 Jun 5.8 04:14:32 10° NNW 04:19:37 53° W 04:24:39 10° SSW visible
03 Jun 8.2 02:03:07 10° NE 02:04:35 11° ENE 02:06:04 10° E visible
03 Jun 5.5 03:40:53 10° N 03:46:09 86° E 03:51:22 10° S visible
04 Jun 6.4 03:07:29 10° N 03:12:33 48° E 03:17:34 10° SSE visible
05 Jun 7.3 02:34:22 10° NNE 02:38:49 27° ENE 02:43:14 10° SE visible
05 Jun 6.2 04:14:50 10° NNW 04:19:37 37° W 04:24:22 10° SSW visible
06 Jun 8.0 02:01:48 10° NE 02:04:58 16° ENE 02:08:07 10° ESE visible
06 Jun 5.6 03:41:02 10° N 03:46:13 67° W 03:50:46 13° S visible
07 Jun 5.8 03:07:28 10° N 03:12:42 69° E 03:17:01 15° SSE visible
08 Jun 6.7 02:34:11 10° NNE 02:39:03 38° E 02:43:17 13° SE visible
08 Jun 6.7 04:15:17 10° NNW 04:19:34 27° W 04:23:44 11° SW visible
